Time,TemperatureF,DewpointF,PressureIn,WindDirection,WindDirectionDegrees,WindSpeedMPH,WindSpeedGustMPH,Humidity,HourlyPrecipIn,Conditions,Clouds,dailyrainin,SoftwareType,DateUTC
2013-04-18 00:02:00,73.0,64.0,29.83,SSW,200,1.0,6.0,73,0.00,,,0.00,,2013-04-18 05:02:00,
2013-04-18 00:12:00,73.0,64.0,29.82,SE,145,1.0,8.0,74,0.00,,,0.00,,2013-04-18 05:12:00,
2013-04-18 00:22:00,73.0,64.0,29.82,SE,145,1.0,8.0,74,0.00,,,0.00,,2013-04-18 05:22:00,
2013-04-18 00:33:00,72.0,64.0,29.82,South,189,0.0,10.0,75,0.00,,,0.00,,2013-04-18 05:33:00,
2013-04-18 00:42:00,71.0,63.0,29.82,SE,141,0.0,0.0,76,0.00,,,0.00,,2013-04-18 05:42:00,
2013-04-18 00:52:00,71.0,63.0,29.82,SE,141,0.0,0.0,76,0.00,,,0.00,,2013-04-18 05:52:00,
2013-04-18 01:02:00,71.0,63.0,29.82,South,187,0.0,7.0,76,0.00,,,0.00,,2013-04-18 06:02:00,
2013-04-18 01:12:00,71.0,63.0,29.82,South,187,0.0,7.0,76,0.00,,,0.00,,2013-04-18 06:12:00,
2013-04-18 01:22:00,71.0,63.0,29.81,South,182,0.0,0.0,76,0.00,,,0.00,,2013-04-18 06:22:00,
2013-04-18 01:32:00,71.0,63.0,29.81,SE,139,0.0,0.0,77,0.00,,,0.00,,2013-04-18 06:32:00,
2013-04-18 01:42:00,71.0,63.0,29.81,SE,139,0.0,0.0,77,0.00,,,0.00,,2013-04-18 06:42:00,
2013-04-18 01:52:00,71.0,63.0,29.81,South,189,0.0,5.0,77,0.00,,,0.00,,2013-04-18 06:52:00,
2013-04-18 02:02:00,71.0,64.0,29.80,South,185,0.0,10.0,78,0.00,,,0.00,,2013-04-18 07:02:00,
2013-04-18 02:12:00,70.0,63.0,29.80,South,184,0.0,0.0,79,0.00,,,0.00,,2013-04-18 07:12:00,
2013-04-18 02:22:00,70.0,63.0,29.80,South,184,0.0,0.0,79,0.00,,,0.00,,2013-04-18 07:22:00,
2013-04-18 02:32:00,71.0,64.0,29.79,SSW,196,2.0,8.0,79,0.00,,,0.00,,2013-04-18 07:32:00,
2013-04-18 02:42:00,72.0,64.0,29.78,South,173,0.0,7.0,77,0.00,,,0.00,,2013-04-18 07:42:00,
2013-04-18 02:52:00,72.0,64.0,29.78,South,173,0.0,7.0,77,0.00,,,0.00,,2013-04-18 07:52:00,
2013-04-18 03:02:00,71.0,64.0,29.78,SSE,163,1.0,7.0,78,0.00,,,0.00,,2013-04-18 08:02:00,
2013-04-18 03:12:00,72.0,65.0,29.77,South,182,0.0,10.0,78,0.00,,,0.00,,2013-04-18 08:12:00,
2013-04-18 03:22:00,72.0,65.0,29.77,South,182,0.0,10.0,78,0.00,,,0.00,,2013-04-18 08:22:00,
2013-04-18 03:32:00,72.0,65.0,29.77,South,190,1.0,10.0,78,0.00,,,0.00,,2013-04-18 08:32:00,
2013-04-18 03:42:00,72.0,65.0,29.77,South,186,0.0,0.0,79,0.00,,,0.00,,2013-04-18 08:42:00,
2013-04-18 03:52:00,72.0,65.0,29.77,South,186,0.0,0.0,79,0.00,,,0.00,,2013-04-18 08:52:00,
2013-04-18 04:02:00,72.0,65.0,29.76,South,186,1.0,11.0,78,0.00,,,0.00,,2013-04-18 09:02:00,
2013-04-18 04:12:00,72.0,65.0,29.75,SSW,192,0.0,14.0,79,0.00,,,0.00,,2013-04-18 09:12:00,
2013-04-18 04:22:00,72.0,65.0,29.75,SSW,192,0.0,14.0,79,0.00,,,0.00,,2013-04-18 09:22:00,
2013-04-18 04:33:00,72.0,65.0,29.75,SSW,196,0.0,1.0,79,0.00,,,0.00,,2013-04-18 09:33:00,
2013-04-18 04:43:00,72.0,65.0,29.75,South,177,6.0,14.0,79,0.00,,,0.00,,2013-04-18 09:43:00,
2013-04-18 04:53:00,72.0,65.0,29.75,South,177,6.0,14.0,79,0.00,,,0.00,,2013-04-18 09:53:00,
2013-04-18 05:03:00,72.0,65.0,29.74,South,191,0.0,10.0,80,0.00,,,0.00,,2013-04-18 10:03:00,
2013-04-18 05:12:00,72.0,65.0,29.74,South,191,0.0,10.0,80,0.00,,,0.00,,2013-04-18 10:12:00,
2013-04-18 05:23:00,71.0,65.0,29.74,South,175,1.0,11.0,80,0.00,,,0.00,,2013-04-18 10:23:00,
2013-04-18 05:32:00,71.0,65.0,29.75,SSE,150,0.0,12.0,81,0.00,,,0.00,,2013-04-18 10:32:00,
2013-04-18 05:42:00,71.0,65.0,29.75,SSE,150,0.0,12.0,81,0.00,,,0.00,,2013-04-18 10:42:00,
2013-04-18 05:52:00,71.0,65.0,29.75,SSE,168,4.0,12.0,81,0.00,,,0.00,,2013-04-18 10:52:00,
2013-04-18 06:02:00,71.0,65.0,29.74,South,183,6.0,11.0,82,0.00,,,0.00,,2013-04-18 11:02:00,
2013-04-18 06:12:00,71.0,65.0,29.75,SW,217,7.0,12.0,82,0.00,,,0.00,,2013-04-18 11:12:00,
2013-04-18 06:22:00,71.0,65.0,29.75,SW,217,7.0,12.0,82,0.00,,,0.00,,2013-04-18 11:22:00,
2013-04-18 06:32:00,71.0,65.0,29.75,South,189,2.0,13.0,82,0.00,,,0.00,,2013-04-18 11:32:00,
2013-04-18 06:42:00,71.0,65.0,29.75,South,189,2.0,13.0,82,0.00,,,0.00,,2013-04-18 11:42:00,
2013-04-18 06:52:00,71.0,66.0,29.75,SSW,192,6.0,13.0,83,0.00,,,0.00,,2013-04-18 11:52:00,
2013-04-18 07:02:00,71.0,65.0,29.75,South,190,4.0,14.0,82,0.00,,,0.00,,2013-04-18 12:02:00,
2013-04-18 07:12:00,71.0,65.0,29.75,South,190,4.0,14.0,82,0.00,,,0.00,,2013-04-18 12:12:00,
2013-04-18 07:22:00,71.0,65.0,29.75,South,190,4.0,14.0,82,0.00,,,0.00,,2013-04-18 12:22:00,
2013-04-18 07:32:00,72.0,66.0,29.75,South,185,6.0,13.0,81,0.00,,,0.00,,2013-04-18 12:32:00,
2013-04-18 07:42:00,72.0,66.0,29.75,South,185,6.0,13.0,81,0.00,,,0.00,,2013-04-18 12:42:00,
2013-04-18 07:52:00,72.0,66.0,29.76,South,187,4.0,14.0,81,0.00,,,0.00,,2013-04-18 12:52:00,
2013-04-18 08:02:00,72.0,66.0,29.76,SSE,147,8.0,19.0,81,0.00,,,0.00,,2013-04-18 13:02:00,
2013-04-18 08:12:00,72.0,66.0,29.76,SSE,147,8.0,19.0,81,0.00,,,0.00,,2013-04-18 13:12:00,
2013-04-18 08:22:00,72.0,65.0,29.75,SSW,204,9.0,19.0,80,0.00,,,0.00,,2013-04-18 13:22:00,
2013-04-18 08:32:00,73.0,66.0,29.74,SSE,167,9.0,21.0,79,0.00,,,0.00,,2013-04-18 13:32:00,
2013-04-18 08:42:00,73.0,66.0,29.74,South,169,9.0,17.0,78,0.00,,,0.00,,2013-04-18 13:42:00,
2013-04-18 08:52:00,73.0,66.0,29.74,South,169,9.0,17.0,78,0.00,,,0.00,,2013-04-18 13:52:00,
2013-04-18 09:02:00,73.0,65.0,29.75,SSW,206,11.0,19.0,77,0.00,,,0.00,,2013-04-18 14:02:00,
2013-04-18 09:12:00,74.0,66.0,29.75,South,177,14.0,22.0,76,0.00,,,0.00,,2013-04-18 14:12:00,
2013-04-18 09:22:00,74.0,66.0,29.75,South,177,14.0,22.0,76,0.00,,,0.00,,2013-04-18 14:22:00,
2013-04-18 09:32:00,74.0,66.0,29.74,South,182,11.0,20.0,76,0.00,,,0.00,,2013-04-18 14:32:00,
2013-04-18 09:42:00,74.0,66.0,29.74,South,182,11.0,20.0,76,0.00,,,0.00,,2013-04-18 14:42:00,
2013-04-18 09:52:00,75.0,66.0,29.74,South,173,14.0,24.0,73,0.00,,,0.00,,2013-04-18 14:52:00,
2013-04-18 10:02:00,75.0,65.0,29.74,SSW,197,15.0,27.0,72,0.00,,,0.00,,2013-04-18 15:02:00,
2013-04-18 10:12:00,75.0,65.0,29.74,SSW,197,15.0,27.0,72,0.00,,,0.00,,2013-04-18 15:12:00,
2013-04-18 10:22:00,75.0,65.0,29.73,SSE,163,11.0,25.0,72,0.00,,,0.00,,2013-04-18 15:22:00,
2013-04-18 10:33:00,76.0,65.0,29.73,South,174,11.0,20.0,70,0.00,,,0.00,,2013-04-18 15:33:00,
2013-04-18 10:42:00,76.0,65.0,29.73,SSW,196,10.0,25.0,70,0.00,,,0.00,,2013-04-18 15:42:00,
2013-04-18 10:52:00,76.0,65.0,29.73,SSW,196,10.0,25.0,70,0.00,,,0.00,,2013-04-18 15:52:00,
2013-04-18 11:03:00,76.0,65.0,29.73,SSW,192,14.0,27.0,68,0.00,,,0.00,,2013-04-18 16:03:00,
2013-04-18 11:13:00,76.0,65.0,29.73,South,184,14.0,26.0,69,0.00,,,0.00,,2013-04-18 16:13:00,
2013-04-18 11:23:00,76.0,65.0,29.73,South,184,14.0,26.0,69,0.00,,,0.00,,2013-04-18 16:23:00,
2013-04-18 11:33:00,76.0,65.0,29.73,SSW,194,11.0,21.0,69,0.00,,,0.00,,2013-04-18 16:33:00,
2013-04-18 11:43:00,75.0,65.0,29.74,SSW,200,10.0,23.0,71,0.00,,,0.00,,2013-04-18 16:43:00,
2013-04-18 11:52:00,75.0,65.0,29.74,SSW,200,10.0,23.0,71,0.00,,,0.00,,2013-04-18 16:52:00,
2013-04-18 12:03:00,75.0,65.0,29.74,South,182,12.0,23.0,70,0.00,,,0.00,,2013-04-18 17:03:00,
2013-04-18 12:12:00,75.0,65.0,29.74,South,182,12.0,23.0,70,0.00,,,0.00,,2013-04-18 17:12:00,
2013-04-18 12:22:00,75.0,64.0,29.73,SSE,164,14.0,24.0,69,0.00,,,0.00,,2013-04-18 17:22:00,
2013-04-18 12:33:00,75.0,64.0,29.72,SSW,199,9.0,21.0,69,0.00,,,0.00,,2013-04-18 17:33:00,
2013-04-18 12:42:00,75.0,64.0,29.72,SSW,199,9.0,21.0,69,0.00,,,0.00,,2013-04-18 17:42:00,
2013-04-18 12:52:00,75.0,64.0,29.71,South,174,10.0,24.0,69,0.00,,,0.00,,2013-04-18 17:52:00,
2013-04-18 13:02:00,75.0,64.0,29.70,South,171,6.0,20.0,68,0.00,,,0.00,,2013-04-18 18:02:00,
2013-04-18 13:12:00,76.0,64.0,29.70,SSW,192,10.0,21.0,66,0.00,,,0.00,,2013-04-18 18:12:00,
2013-04-18 13:22:00,76.0,64.0,29.70,SSW,192,10.0,21.0,66,0.00,,,0.00,,2013-04-18 18:22:00,
2013-04-18 13:32:00,76.0,64.0,29.69,South,178,10.0,17.0,66,0.00,,,0.00,,2013-04-18 18:32:00,
2013-04-18 13:42:00,76.0,64.0,29.69,South,178,10.0,17.0,66,0.00,,,0.00,,2013-04-18 18:42:00,
2013-04-18 13:52:00,76.0,64.0,29.68,South,187,9.0,19.0,66,0.00,,,0.00,,2013-04-18 18:52:00,
2013-04-18 14:02:00,76.0,63.0,29.68,South,188,9.0,22.0,65,0.00,,,0.00,,2013-04-18 19:02:00,
2013-04-18 14:12:00,76.0,63.0,29.68,South,188,9.0,22.0,65,0.00,,,0.00,,2013-04-18 19:12:00,
2013-04-18 14:22:00,77.0,64.0,29.67,South,186,11.0,18.0,64,0.00,,,0.00,,2013-04-18 19:22:00,
2013-04-18 14:32:00,79.0,64.0,29.67,SSW,192,11.0,21.0,61,0.00,,,0.00,,2013-04-18 19:32:00,
2013-04-18 14:42:00,79.0,64.0,29.67,SSW,192,11.0,21.0,61,0.00,,,0.00,,2013-04-18 19:42:00,
2013-04-18 14:52:00,78.0,63.0,29.67,SSW,210,12.0,25.0,61,0.00,,,0.00,,2013-04-18 19:52:00,
2013-04-18 15:02:00,78.0,63.0,29.67,SSE,167,11.0,21.0,61,0.00,,,0.00,,2013-04-18 20:02:00,
2013-04-18 15:12:00,78.0,63.0,29.67,SSE,167,11.0,21.0,61,0.00,,,0.00,,2013-04-18 20:12:00,
2013-04-18 15:22:00,77.0,63.0,29.67,ESE,123,8.0,20.0,63,0.00,,,0.00,,2013-04-18 20:22:00,
2013-04-18 15:32:00,77.0,64.0,29.66,South,181,6.0,14.0,64,0.00,,,0.00,,2013-04-18 20:32:00,
2013-04-18 15:42:00,77.0,63.0,29.66,South,188,9.0,18.0,63,0.00,,,0.00,,2013-04-18 20:42:00,
2013-04-18 15:52:00,77.0,63.0,29.66,South,188,9.0,18.0,63,0.00,,,0.00,,2013-04-18 20:52:00,
2013-04-18 16:02:00,77.0,63.0,29.65,South,175,9.0,18.0,63,0.00,,,0.00,,2013-04-18 21:02:00,
2013-04-18 16:12:00,77.0,63.0,29.65,South,175,9.0,18.0,63,0.00,,,0.00,,2013-04-18 21:12:00,
2013-04-18 16:22:00,75.0,63.0,29.65,SSW,194,7.0,13.0,67,0.00,,,0.00,,2013-04-18 21:22:00,
2013-04-18 16:32:00,72.0,62.0,29.66,WNW,283,8.0,14.0,70,0.00,,,0.00,,2013-04-18 21:32:00,
2013-04-18 16:43:00,66.0,62.0,29.67,NW,317,3.0,11.0,86,0.06,,,0.06,,2013-04-18 21:43:00,
2013-04-18 16:52:00,66.0,62.0,29.67,NW,317,3.0,11.0,86,0.06,,,0.06,,2013-04-18 21:52:00,
2013-04-18 17:02:00,65.0,62.0,29.66,WNW,288,2.0,8.0,89,0.06,,,0.06,,2013-04-18 22:02:00,
2013-04-18 17:13:00,65.0,61.0,29.65,NW,310,3.0,11.0,88,0.06,,,0.06,,2013-04-18 22:13:00,
2013-04-18 17:22:00,65.0,61.0,29.65,NW,310,3.0,11.0,88,0.06,,,0.06,,2013-04-18 22:22:00,
2013-04-18 17:32:00,65.0,61.0,29.65,West,263,4.0,11.0,87,0.06,,,0.06,,2013-04-18 22:32:00,
2013-04-18 17:42:00,65.0,61.0,29.66,West,275,5.0,9.0,88,0.00,,,0.06,,2013-04-18 22:42:00,
2013-04-18 17:52:00,65.0,61.0,29.66,West,275,5.0,9.0,88,0.00,,,0.06,,2013-04-18 22:52:00,
2013-04-18 18:04:00,64.0,61.0,29.65,WSW,248,2.0,7.0,91,0.04,,,0.10,,2013-04-18 23:04:00,
2013-04-18 18:12:00,64.0,61.0,29.65,WSW,248,2.0,7.0,91,0.04,,,0.10,,2013-04-18 23:12:00,
2013-04-18 18:21:00,64.0,61.0,29.65,WSW,248,2.0,7.0,91,0.04,,,0.10,,2013-04-18 23:21:00,
2013-04-18 18:32:00,63.0,61.0,29.64,WSW,257,0.0,7.0,93,0.08,,,0.14,,2013-04-18 23:32:00,
2013-04-18 18:42:00,64.0,62.0,29.64,SSW,203,0.0,6.0,94,0.12,,,0.18,,2013-04-18 23:42:00,
2013-04-18 18:52:00,64.0,62.0,29.64,SSW,203,0.0,6.0,94,0.12,,,0.18,,2013-04-18 23:52:00,
2013-04-18 19:01:00,63.0,61.0,29.64,West,281,0.0,6.0,94,0.14,,,0.24,,2013-04-19 00:01:00,
2013-04-18 19:12:00,63.0,61.0,29.64,West,281,0.0,6.0,94,0.14,,,0.24,,2013-04-19 00:12:00,
2013-04-18 19:22:00,63.0,61.0,29.64,South,180,1.0,11.0,94,0.22,,,0.36,,2013-04-19 00:22:00,
2013-04-18 19:32:00,63.0,62.0,29.65,WSW,249,2.0,9.0,95,0.34,,,0.48,,2013-04-19 00:32:00,
2013-04-18 19:42:00,63.0,62.0,29.65,WSW,249,2.0,9.0,95,0.34,,,0.48,,2013-04-19 00:42:00,
2013-04-18 19:51:00,63.0,62.0,29.65,West,272,3.0,11.0,95,0.38,,,0.56,,2013-04-19 00:51:00,
2013-04-18 20:01:00,63.0,62.0,29.65,West,272,3.0,11.0,95,0.38,,,0.56,,2013-04-19 01:01:00,
2013-04-18 20:11:00,63.0,62.0,29.65,West,272,3.0,11.0,95,0.38,,,0.56,,2013-04-19 01:11:00,
2013-04-18 20:21:00,64.0,63.0,29.64,WSW,250,2.0,8.0,95,0.26,,,0.62,,2013-04-19 01:21:00,
2013-04-18 20:32:00,63.0,62.0,29.64,West,265,5.0,13.0,95,0.17,,,0.66,,2013-04-19 01:32:00,
2013-04-18 20:42:00,63.0,62.0,29.64,West,265,5.0,13.0,95,0.17,,,0.66,,2013-04-19 01:42:00,
2013-04-18 20:52:00,54.0,52.0,29.66,WNW,288,11.0,19.0,92,0.14,,,0.70,,2013-04-19 01:52:00,
2013-04-18 21:02:00,53.0,51.0,29.67,WNW,296,7.0,13.0,94,0.14,,,0.73,,2013-04-19 02:02:00,
2013-04-18 21:11:00,53.0,51.0,29.67,WNW,296,7.0,13.0,94,0.14,,,0.73,,2013-04-19 02:11:00,
2013-04-18 21:21:00,51.0,49.0,29.69,NW,314,5.0,14.0,93,0.21,,,0.83,,2013-04-19 02:21:00,
2013-04-18 21:32:00,51.0,49.0,29.70,WNW,289,7.0,13.0,94,0.24,,,0.90,,2013-04-19 02:32:00,
2013-04-18 21:42:00,51.0,49.0,29.70,WNW,289,7.0,13.0,94,0.24,,,0.90,,2013-04-19 02:42:00,
2013-04-18 21:51:00,50.0,48.0,29.69,West,278,9.0,22.0,94,0.24,,,0.94,,2013-04-19 02:51:00,
2013-04-18 22:01:00,49.0,47.0,29.70,WNW,302,10.0,14.0,93,0.22,,,0.96,,2013-04-19 03:01:00,
2013-04-18 22:11:00,49.0,47.0,29.70,WNW,302,10.0,14.0,93,0.22,,,0.96,,2013-04-19 03:11:00,
2013-04-18 22:21:00,48.0,46.0,29.70,WNW,302,8.0,17.0,94,0.18,,,1.01,,2013-04-19 03:21:00,
2013-04-18 22:33:00,47.0,45.0,29.69,NW,311,9.0,13.0,94,0.17,,,1.07,,2013-04-19 03:33:00,
2013-04-18 22:43:00,47.0,45.0,29.69,NW,311,9.0,13.0,94,0.17,,,1.07,,2013-04-19 03:43:00,
2013-04-18 22:53:00,46.0,44.0,29.66,NNW,331,4.0,13.0,94,0.21,,,1.14,,2013-04-19 03:53:00,
2013-04-18 23:03:00,46.0,45.0,29.69,NNW,327,3.0,9.0,95,0.30,,,1.26,,2013-04-19 04:03:00,
2013-04-18 23:13:00,46.0,45.0,29.69,NNW,327,3.0,9.0,95,0.30,,,1.26,,2013-04-19 04:13:00,
2013-04-18 23:23:00,46.0,45.0,29.71,WNW,291,6.0,11.0,95,0.28,,,1.29,,2013-04-19 04:23:00,
2013-04-18 23:33:00,45.0,44.0,29.70,West,273,6.0,11.0,95,0.26,,,1.34,,2013-04-19 04:33:00,
2013-04-18 23:43:00,45.0,44.0,29.70,NW,307,9.0,14.0,95,0.24,,,1.40,,2013-04-19 04:43:00,
2013-04-18 23:52:00,45.0,44.0,29.70,NW,307,9.0,14.0,95,0.24,,,1.40,,2013-04-19 04:52:00,